SCP
0 0 0 0 0 0 0 0 0 0 0 0 0 0 0 0 0 0 0 0 0 0 0 0 0 0 0 0 0 0 0 0 0 0 0 0 0 0
0 0 0 0 0 0 0 0 0 0 0 0 0 0 0 0 0 0 0 0 0 0 0 0 0 0 0 0 0 0 0 0 0 0 0 0 0 0
0 0 0 0 0 0 0 0 0 0 0 0 0 0 0 0 0 0 0 0 0 0 0 0 0 0 0 0 0 0 0 0 0 0 0 0 0 0
0 0 0 0 0 0 0 0 0 0 0 0 0 0 0 0 0 0 0 0 0 0 0 0 0 0 0 0 0 0 0 0 0 0 0 0 0 0
0 0 0 0 0 0 0 0 0 0 0 0 0 0 0 0 0 0 0 0 0 0 0 0 0 0 0 0 0 0 0 0 0 0 0 0 0 0
0 0 0 0 0 0 0 0 0 0 0 0 0 0 0 0 0 0 0 0 0 0 0 0 0 0 0 0 0 0 0 0 0 0 0 0 0 0
0 0 0 0 0 0 0 0 0 0 0 0 0 0 0 0 0 0 0 0 0 0 0 0 0 0 0 0 0 0 0 0 0 0 0 0 0 0
0 0 0 0 0 0 0 0 0 0 0 0 0 0 0 0 0 0 0 0 0 0 0 0 0 0 0 0 0 0 0 0 0 0 0 0 0 0
0 0 0 0 0 0 0 0 0 0 0 0 0 0 0 0 0 0 0 0 0 0 0 0 0 0 0 0 0 0 0 0 0 0 0 0 0 0
0 0 0 0 0 0 0 0 0 0 0 0 0 0 0 0 0 0 0 0 0 0 0 0 0 0 0 0 0 0 0 0 0 0 0 0 0 0
0 0 0 0 0 0 0 0 0 0 0 0 0 0 0 0 0 0 0 0 0 0 0 0 0 0 0 0 0 0 0 0 0 0 0 0 0 0
0 0 0 0 0 0 0 0 0 0 0 0 0 0 0 0 0 0 0 0 0 0 0 0 0 0 0 0 0 0 0 0 0 0 0 0 0 0
0 0 0 0 0 0 0 0 0 0 0 0 0 0 0 0 0 0 0 0 0 0 0 0 0 0 0 0 0 0 0 0 0 0 0 0 0 0
0 0 0 0 0 0 0 0 0 0 0 0 0 0 0 0 0 0 0 0 0 0 0 0 0 0 0 0 0 0 0 0 0 0 0 0 0 0
0 0 0 0 0 0 0 0 0 0 0 0 0 0 0 0 0 0 0 0 0 0 0 0 0 0 0 0 0 0 0 0 0 0 0 0 0 0
0 0 0 0 0 0 0 0 0 0 0 0 0 0 0 0 0 0 0 0 0 0 0 0 0 0 0 0 0 0 0 0 0 0 0 0 0 0
0 0 0 0 0 0 0 0 0 0 0 0 0 0 0 0 0 0 0 0 0 0 0 0 0 0 0 0 0 0 0 0 0 0 0 0 0 0
0 0 0 0 0 0 0 0 0 0 0 0 0 0 0 0 0 0 0 0 0 0 0 0 0 0 0 0 0 0 0 0 0 0 0 0 0 0
0 0 0 0 0 0 0 0 0 0 0 0 0 0 0 0 0 0 0 0 0 0 0 0 0 0 0 0 0 0 0 0 0 0 0 0 0 0
0 0 0 0 0 0 0 0 0 0 0 0 0 0 0 0 0 0 0 0 0 0 0 0 0 0 0 0 0 0 0 0 0 0 0 0 0 0
0 0 0 0 0 0 0 0 0 0 0 0 0 0 0 0 0 0 0 0 0 0 0 0 0 0 0 0 0 0 0 0 0 0 0 0 0 0
0 0 0 0 0 0 0 0 0 0 0 0 0 0 0 0 0 0 0 0 0 0 0 0 0 0 0 0 0 0 0 0 0 0 0 0 0 0
0 0 0 0 0 0 0 0 0 0 0 0 0 0 0 0 0 0 0 0 0 0 0 0 0 0 0 0 0 0 0 0 0 0 0 0 0 0
Wind_Speed
4 4 3 3 3 2 2 3 4 3 3 2 1 1 1 0 1 0 0 2 2 2 2 2 2 1 1 1 0 0 1 1 1 2 3 3 4 4
3 3 3 3 3 3 2 2 3 3 3 2 2 1 1 1 1 0 0 2 2 2 2 2 1 1 1 0 0 0 0 1 2 2 3 4 4 4
2 3 4 4 3 3 3 3 2 3 3 1 1 1 1 1 1 1 0 1 1 2 2 2 2 1 1 1 0 1 0 1 2 3 4 4 5 5
3 3 4 3 4 4 4 4 3 3 3 3 1 1 1 1 1 1 1 1 1 2 2 2 1 1 1 1 1 1 1 2 3 3 4 5 5 6
3 4 4 4 4 4 4 4 3 3 3 3 2 1 1 1 0 1 1 1 1 2 1 1 1 1 1 1 1 1 1 2 3 3 4 5 5 6
3 3 3 5 5 6 4 5 4 3 3 3 2 1 1 1 1 1 1 1 2 2 2 2 1 1 1 1 2 2 3 3 4 4 4 5 5 6
2 2 3 4 4 5 4 5 5 4 4 3 2 2 1 1 1 1 1 0 1 1 1 1 1 1 1 2 2 3 4 4 5 5 5 6 6 6
2 2 2 2 3 3 4 5 5 6 5 4 3 3 3 2 1 1 1 1 1 1 0 1 1 1 2 1 3 4 4 5 5 5 6 6 6 6
2 2 1 1 2 3 3 2 2 3 5 5 4 4 3 3 3 2 2 1 2 1 0 2 1 2 2 2 4 4 4 4 5 5 5 6 6 6
2 2 3 2 3 3 3 3 2 2 4 3 4 4 3 3 4 3 3 1 1 1 0 1 1 2 2 2 4 4 4 4 5 5 5 6 5 6
1 2 2 3 3 3 4 4 2 1 1 2 2 2 2 2 2 2 2 1 1 1 0 1 1 2 2 2 3 4 4 4 4 5 5 5 6 6
1 1 1 2 3 3 3 4 3 2 2 2 2 2 2 2 1 1 2 2 1 1 1 0 1 1 2 1 1 2 2 4 5 5 6 7 6 3
1 1 1 2 2 2 2 2 3 2 2 3 2 2 2 1 1 0 0 2 2 2 1 1 1 1 1 2 2 2 2 2 3 3 5 7 7 5
1 1 2 3 3 2 2 3 4 2 2 2 2 1 1 1 1 1 1 1 0 1 2 1 1 2 1 2 3 2 2 2 2 3 3 5 6 7
2 3 3 4 4 3 4 4 2 2 2 2 2 1 1 1 1 1 1 1 1 1 1 1 1 2 2 3 3 2 3 3 2 2 3 3 3 3
2 3 5 5 4 4 4 3 2 2 2 2 1 1 1 1 1 1 0 0 0 1 1 1 1 2 2 3 3 4 3 3 2 3 3 4 3 3
2 2 2 2 3 3 3 3 2 2 2 1 1 1 1 1 1 0 0 0 0 1 2 2 2 1 2 2 3 3 3 3 3 3 3 4 4 4
2 2 2 2 2 2 2 2 2 2 2 1 1 1 1 1 1 1 1 0 1 1 1 1 2 2 2 2 3 4 3 3 3 3 3 4 6 4
2 2 2 1 1 1 1 1 1 2 2 1 1 1 1 1 0 1 1 1 1 1 1 1 1 0 2 3 3 3 3 3 3 3 3 4 5 6
2 2 1 1 1 1 1 1 1 1 1 1 1 1 0 0 0 0 1 1 1 2 2 1 1 2 3 3 3 3 5 4 3 4 4 4 5 7
1 1 1 1 1 1 1 1 0 0 0 0 0 0 0 0 1 1 1 2 2 2 2 3 3 4 2 1 2 3 3 5 5 4 4 4 4 4
1 1 1 1 1 0 0 0 0 0 0 0 1 1 1 1 1 2 2 2 2 2 3 3 3 2 1 2 4 5 4 5 6 8 7 6 3 3
2 1 1 1 1 0 0 1 1 1 1 1 1 1 1 1 2 2 2 2 2 2 3 3 2 1 2 3 3 4 5 5 4 4 4 7 10 12
Wind_Direction
200 195 194 192 187 187 170 166 165 186 227 227 232 281 291 292 345 305 278 311 309 298 299 311 311 300 293 298 231 315 327 327 283 272 282 275 261 262
207 198 202 195 190 185 183 184 176 176 207 213 214 235 279 313 335 281 223 346 320 307 300 308 300 292 294 282 321 94 49 305 287 283 283 281 270 268
205 198 204 194 188 184 181 183 182 167 197 226 218 230 214 263 306 297 269 246 278 302 296 291 276 261 243 255 204 181 233 285 286 286 284 284 280 275
209 203 208 196 192 186 184 187 188 181 175 196 218 222 231 244 262 277 312 324 286 308 290 284 276 251 236 236 241 240 258 279 286 290 290 288 283 279
211 210 208 195 197 191 186 186 188 182 167 173 195 196 219 217 326 326 331 341 338 332 320 306 280 249 217 217 257 263 279 284 286 287 291 291 288 283
215 214 207 201 201 192 187 185 178 172 167 169 180 184 192 199 171 208 320 356 342 351 352 337 338 339 307 294 292 294 292 290 289 288 287 287 285 282
207 213 210 204 202 197 190 181 175 174 173 178 185 185 188 185 201 198 251 327 340 330 8 345 337 324 303 289 279 276 283 286 286 286 287 289 287 283
192 195 199 191 181 185 194 188 183 182 182 187 199 200 207 208 193 190 214 251 282 299 354 313 321 298 297 275 286 284 287 290 291 290 291 291 289 289
191 181 181 173 171 150 145 159 182 196 194 190 192 206 203 201 191 209 233 248 252 243 253 285 294 284 298 295 293 292 295 297 297 297 298 297 293 290
185 171 171 174 176 160 147 153 169 192 196 186 186 195 203 200 201 205 201 199 289 305 267 251 265 268 297 299 295 290 297 303 305 306 303 299 300 303
153 150 153 151 162 163 154 155 158 157 137 150 156 156 170 185 182 149 156 173 258 278 291 217 261 291 288 285 302 309 306 310 317 318 316 314 311 310
73 94 143 140 151 161 160 156 164 171 143 127 113 94 108 123 131 178 188 191 215 252 250 180 236 332 312 296 311 331 328 322 324 321 320 317 315 311
76 67 79 97 127 136 154 155 165 159 145 138 136 129 117 114 116 108 181 196 203 226 209 154 208 255 242 287 301 309 309 311 315 313 312 314 315 311
79 72 85 79 77 96 111 128 123 108 117 124 126 131 131 125 101 94 91 86 182 213 206 193 206 233 249 270 278 298 306 303 302 303 304 312 311 309
78 86 78 71 59 62 71 85 98 108 118 124 130 133 147 161 144 109 76 80 63 36 8 269 219 239 242 249 263 276 296 297 283 292 299 297 292 298
62 77 71 65 58 57 56 52 52 82 112 123 123 109 76 111 131 140 162 119 51 342 351 344 277 235 247 253 250 265 266 271 294 296 296 293 289 281
69 62 62 65 65 60 55 52 55 61 61 72 93 90 71 53 27 36 102 27 204 275 311 335 342 321 265 247 255 261 269 274 274 289 299 297 286 276
61 74 69 67 69 64 63 52 47 50 51 61 72 75 65 48 12 357 359 229 224 256 279 306 336 346 338 304 247 254 267 272 284 284 279 284 289 284
58 66 64 64 61 63 62 54 41 42 50 55 57 56 49 34 9 350 336 329 297 279 278 280 294 258 291 292 291 253 253 276 286 283 273 265 277 289
48 65 64 57 52 51 51 45 46 47 51 55 64 65 73 110 325 308 298 270 264 272 277 267 244 232 236 251 267 281 272 267 270 275 280 281 277 285
27 34 38 47 50 48 43 35 38 30 40 54 59 284 241 202 235 251 258 278 286 274 268 268 260 272 258 255 279 280 277 274 274 272 278 286 291 293
0 356 357 3 23 32 355 252 262 294 298 278 263 262 260 241 238 246 255 264 273 272 270 272 279 286 236 240 268 279 288 298 295 289 276 261 258 266
338 334 329 324 325 305 266 242 235 251 251 248 253 259 261 261 260 253 254 259 267 274 278 277 278 264 254 250 262 276 284 293 300 305 293 289 284 280